Home   Weather   39°49'N, 104°59'W   Past weeks
Flag for USA

Past Weather in 39°49'N, 104°59'W, USA — Yesterday and Last 2 Weeks

Now
75 °F

Broken clouds.


Feels Like: 77 °F
Forecast: 82 / 59 °F
Wind: 14 mph from East

Location: Buckley Air Force Base

Current Time: Jul 20, 2019 at 6:12:31 pm

Latest Report: Jul 20, 2019 at 4:58 pm


Visibility: 10 mi

Pressure: 29.90 "Hg

Humidity: 56%

Dew Point: 58 °F

Location of 39°49'N, 104°59'WLocation

Past Weather in 39°49'N, 104°59'W — Graph

°F

39°49'N, 104°59'W Temperature Yesterday

Maximum temperature yesterday: 97 °F (at 3:58 pm)
Minimum temperature yesterday: 64 °F (at 5:58 am)
Average temperature yesterday: 82 °F

High & Low Weather Summary for the Past Weeks

 TemperatureHumidityPressure
High98 °F (Jul 18, 4:58 pm)100% (Jul 6, 4:58 am)30.24 "Hg (Jul 6, 4:58 am)
Low53 °F (Jul 9, 5:58 am)9% (Jul 19, 12:58 pm)29.64 "Hg (Jul 19, 6:58 pm)
Average76 °F44%29.91 "Hg
* Reported Jul 5 4:58 pm — Jul 20 4:58 pm, 39°49'N, 104°59'W. Weather by CustomWeather, © 2019

Note: Actual official high and low records may vary slightly from our data, if they occured in-between our weather recording intervals... More about our weather records

Advertising

39°49'N, 104°59'W Weather History for the Previous 24 Hours

Scroll right to see more
 ConditionsComfort  
Time TempWeatherWind HumidityBarometerVisibility
4:58 pm
Sat, Jul 20
75 °FBroken clouds.14 mph56%29.90 "Hg10 mi
4:25 pm72 °FThundershowers. Broken clouds.21 mph73%29.88 "Hg10 mi
3:58 pm76 °FThunderstorms. Broken clouds.10 mph61%29.95 "Hg10 mi
3:34 pm77 °FThunderstorms. Broken clouds.12 mph57%29.91 "Hg10 mi
2:58 pm83 °FThundershowers. Broken clouds.22 mph49%29.86 "Hg10 mi
1:58 pm86 °FScattered clouds.17 mph43%29.85 "Hg10 mi
12:58 pm86 °FScattered clouds.14 mph42%29.83 "Hg10 mi
11:58 am84 °FScattered clouds.12 mph45%29.83 "Hg10 mi
10:58 am82 °FScattered clouds.13 mph46%29.83 "Hg10 mi
9:58 am81 °FScattered clouds.14 mph28%29.82 "Hg10 mi
8:58 am83 °FScattered clouds.12 mph23%29.79 "Hg10 mi
7:58 am75 °FScattered clouds.No wind35%29.77 "Hg10 mi
6:58 am69 °FBroken clouds.5 mph41%29.74 "Hg10 mi
5:58 am68 °FScattered clouds.5 mph37%29.73 "Hg10 mi
4:58 am70 °FPartly cloudy.6 mph36%29.70 "Hg10 mi
3:58 am72 °FPartly cloudy.6 mph34%29.70 "Hg10 mi
2:58 am73 °FPassing clouds.5 mph32%29.67 "Hg10 mi
1:58 am71 °FPassing clouds.5 mph36%29.66 "Hg10 mi
12:58 am75 °FPassing clouds.8 mph31%29.66 "Hg10 mi
11:58 pm
Fri, Jul 19
80 °FPassing clouds.5 mph28%29.66 "Hg10 mi
10:58 pm79 °FPassing clouds.7 mph27%29.66 "Hg10 mi
9:58 pm77 °FPassing clouds.9 mph26%29.67 "Hg10 mi
8:58 pm80 °FPassing clouds.7 mph24%29.66 "Hg10 mi
7:58 pm86 °FPassing clouds.7 mph20%29.65 "Hg10 mi
6:58 pm94 °FPassing clouds.9 mph14%29.64 "Hg10 mi
Weather by CustomWeather, © 2019

See weather overview